Repton, AL

8:10 PM CST on February 06, 2016 (GMT -0600)
Middleton

Weather History for KGZH - March, 2012

Change the Weather History Date:

Sunday, March 18, 2012

  Actual Average (KPRN) Record (KPRN)
Temperature  
Mean Temperature 70 °F -  
Max Temperature 87 °F 70 °F 89 °F (1963)
Min Temperature 53 °F 45 °F 29 °F (1941)
Cooling Degree Days 4    
Growing Degree Days 20 (Base 50)    
Moisture  
Dew Point 55 °F    
Average Humidity 74    
Maximum Humidity 94    
Minimum Humidity 33    
Precipitation  
Precipitation 0.00 in - - ()
Sea Level Pressure  
Sea Level Pressure 30.21 in    
Wind  
Wind Speed 1 mph (SSW)    
Max Wind Speed 13 mph    
Max Gust Speed -    
Visibility 8 miles    
Events Fog    
Averages and records for this station are not official NWS values.
T = Trace of Precipitation, MM = Missing Value Source: NWS Daily Summary

Daily Weather History Graph

Daily Weather History Graph

Search for Another Location

Airport or City:

Trip Planner

Search our weather history database for the weather conditions in past years. The results will help you decide how hot, cold, wet, or windy it might be!

Date:

Astronomy

Mar. 18, 2012 Rise Set
Actual Time 6:53 AM CDT 6:58 PM CDT
Civil Twilight 6:29 AM CDT 7:22 PM CDT
Nautical Twilight 6:01 AM CDT 7:51 PM CDT
Astronomical Twilight 5:33 AM CDT 8:19 PM CDT
Moon 4:19 AM CDT (3/18) 3:36 PM CDT (3/18)
Length of Visible Light 12h 53m
Length of Day
12h 04m
Waning Crescent, 15% of the Moon is Illuminated
Mar 18
Waning Crescent
Mar 22
New
Mar 30
First Quarter
Apr 6
Full
Apr 13
Last Quarter

Hourly Weather History & Observations

Time (CDT) Temp. Heat Index Dew Point Humidity Pressure Visibility Wind Dir Wind Speed Gust Speed Precip Events Conditions
12:53 AM 59.0 °F - 55.0 °F 87% 30.21 in 10.0 mi Calm Calm - N/A   Clear
1:53 AM 59.0 °F - 55.0 °F 87% 30.20 in 10.0 mi Calm Calm - N/A   Clear
2:53 AM 55.9 °F - 53.1 °F 90% 30.19 in 10.0 mi Calm Calm - N/A   Clear
3:53 AM 55.9 °F - 52.0 °F 87% 30.19 in 8.0 mi Calm Calm - N/A   Clear
4:53 AM 54.0 °F - 51.1 °F 90% 30.19 in 8.0 mi Calm Calm - N/A   Clear
5:53 AM 54.0 °F - 50.0 °F 86% 30.21 in 8.0 mi Calm Calm - N/A   Clear
6:23 AM 53.6 °F - 50.0 °F 88% 30.23 in 10.0 mi Calm Calm - N/A   Scattered Clouds
6:32 AM 53.6 °F - 50.0 °F 88% 30.23 in 10.0 mi Calm Calm - N/A   Mostly Cloudy
6:53 AM 54.0 °F - 51.1 °F 90% 30.23 in 10.0 mi Calm Calm - N/A   Overcast
7:01 AM 53.6 °F - 51.8 °F 94% 30.24 in 1.5 mi Calm Calm - N/A   Overcast
7:08 AM 53.6 °F - 51.8 °F 94% 30.24 in 0.2 mi Calm Calm - N/A Fog Fog
7:53 AM 57.0 °F - 54.0 °F 89% 30.25 in 0.2 mi Calm Calm - N/A Fog Fog
8:53 AM 61.0 °F - 59.0 °F 93% 30.27 in 0.2 mi Calm Calm - N/A Fog Fog
9:14 AM 62.6 °F - 60.8 °F 94% 30.27 in 2.5 mi Calm Calm - N/A   Mostly Cloudy
9:21 AM 64.4 °F - 60.8 °F 88% 30.27 in 5.0 mi Calm Calm - N/A   Mostly Cloudy
9:30 AM 64.4 °F - 62.6 °F 94% 30.27 in 7.0 mi Calm Calm - N/A   Scattered Clouds
9:53 AM 69.1 °F - 62.1 °F 78% 30.27 in 10.0 mi Calm Calm - N/A   Clear
10:53 AM 77.0 °F - 62.1 °F 60% 30.27 in 10.0 mi SSW 3.5 mph - N/A   Clear
12:53 PM 82.9 °F 81.9 °F 54.0 °F 37% 30.23 in 10.0 mi South 9.2 mph - N/A   Clear
1:53 PM 84.9 °F 83.2 °F 53.1 °F 33% 30.20 in 10.0 mi SSE 5.8 mph - N/A   Clear
2:53 PM 84.9 °F 83.6 °F 55.0 °F 36% 30.17 in 10.0 mi South 12.7 mph - N/A   Clear
3:53 PM 86.0 °F 84.7 °F 55.9 °F 36% 30.16 in 10.0 mi SW 8.1 mph - N/A   Clear
5:53 PM 82.9 °F 82.1 °F 55.9 °F 39% 30.15 in 10.0 mi SW 8.1 mph - N/A   Clear
6:53 PM 79.0 °F - 54.0 °F 42% 30.15 in 10.0 mi SSW 6.9 mph - N/A   Clear
7:53 PM 73.9 °F - 55.0 °F 52% 30.16 in 10.0 mi SSW 4.6 mph - N/A   Clear
8:53 PM 70.0 °F - 55.9 °F 61% 30.18 in 10.0 mi Calm Calm - N/A   Clear
9:53 PM 64.9 °F - 57.0 °F 75% 30.19 in 10.0 mi Calm Calm - N/A   Clear
10:53 PM 62.1 °F - 57.0 °F 84% 30.19 in 10.0 mi Calm Calm - N/A   Clear
11:53 PM 61.0 °F - 55.9 °F 83% 30.19 in 4.0 mi Calm Calm - N/A   Haze